Mexico City Airport, Mexico

12:08 PM CDT on September 23, 2017 (GMT -0500)
Lic Benito Juarez International

Weather History for MMMX - March, 2014

Change the Weather History Date:

Wednesday, March 26, 2014

  Actual Average Record
Temperature  
Mean Temperature 64 °F -  
Max Temperature 77 °F 78 °F 84 °F (2002)
Min Temperature 50 °F 49 °F 42 °F (2003)
Degree Days  
Heating Degree Days 2    
Growing Degree Days 14 (Base 50)    
Moisture  
Dew Point 46 °F    
Average Humidity 55    
Maximum Humidity 88    
Minimum Humidity 29    
Precipitation  
Precipitation 0.00 in - - ()
Sea Level Pressure  
Sea Level Pressure 30.18 in    
Wind  
Wind Speed 5 mph ()    
Max Wind Speed 17 mph    
Max Gust Speed 23 mph    
Visibility 8.5 miles    
Events      
Averages and records for this station are not official NWS values.
T = Trace of Precipitation, MM = Missing Value Source: Averaged Metar Reports

Daily Weather History Graph

Daily Weather History Graph

Search for Another Location

Airport or City:

Trip Planner

Search our weather history database for the weather conditions in past years. The results will help you decide how hot, cold, wet, or windy it might be!

Date:

Astronomy

Mar. 26, 2014 Rise Set
Actual Time 6:35 AM CST 6:48 PM CST
Civil Twilight 6:13 AM CST 7:10 PM CST
Nautical Twilight 5:47 AM CST 7:36 PM CST
Astronomical Twilight 5:22 AM CST 8:02 PM CST
Moon 3:11 AM CST (3/26) 2:59 PM CST (3/26)
Length of Visible Light 12h 57m
Length of Day
12h 13m
Waning Crescent, 21% of the Moon is Illuminated
Mar 26
Waning Crescent
Mar 30
New
Apr 7
First Quarter
Apr 15
Full
Apr 22
Last Quarter

Hourly Weather History & Observations

Time (CST) Temp. Dew Point Humidity Pressure Visibility Wind Dir Wind Speed Gust Speed Precip Events Conditions
12:56 AM 59.0 °F 46.4 °F 63% 30.34 in 10.0 mi SSW 4.6 mph - N/A   Partly Cloudy
1:55 AM 57.2 °F 46.4 °F 67% 30.31 in 10.0 mi NNW 4.6 mph - N/A   Partly Cloudy
2:49 AM 53.6 °F 46.4 °F 77% 30.30 in 10.0 mi East 4.6 mph - N/A   Partly Cloudy
2:52 AM 53.6 °F 46.4 °F 77% 29.81 in 10.0 mi East 4.6 mph - N/A   Partly Cloudy
3:46 AM 51.8 °F 46.4 °F 82% 30.29 in 10.0 mi ENE 4.6 mph - N/A   Clear
4:51 AM 50.0 °F 46.4 °F 87% 30.28 in 10.0 mi ENE 6.9 mph - N/A   Clear
5:49 AM 50.0 °F 46.4 °F 87% 29.88 in 10.0 mi Calm Calm - N/A   Clear
6:24 AM 51.8 °F 46.4 °F 82% 30.31 in 8.0 mi NNE 3.5 mph - N/A   Clear
6:48 AM 51.8 °F 48.2 °F 88% 30.31 in 7.0 mi NNE 2.3 mph - N/A   Clear
7:18 AM 55.4 °F 46.4 °F 72% 30.33 in 7.0 mi ENE 4.6 mph - N/A   Clear
7:22 AM 55.4 °F 46.4 °F 72% 30.33 in 7.0 mi ENE 4.6 mph - N/A   Clear
7:47 AM 57.2 °F 48.2 °F 72% 30.34 in 7.0 mi East 6.9 mph - N/A   Partly Cloudy
8:21 AM 59.0 °F 48.2 °F 67% 30.35 in 6.0 mi ENE 2.3 mph - N/A   Partly Cloudy
8:43 AM 60.8 °F 48.2 °F 63% 29.91 in 6.0 mi NE 3.5 mph - N/A   Scattered Clouds
9:21 AM 62.6 °F 48.2 °F 59% 30.37 in 6.0 mi Calm Calm - N/A   Scattered Clouds
9:43 AM 64.4 °F 48.2 °F 56% 30.36 in 6.0 mi Calm Calm - N/A   Scattered Clouds
10:32 AM 68.0 °F 48.2 °F 49% 30.35 in 6.0 mi SE 3.5 mph - N/A   Scattered Clouds
10:48 AM 69.8 °F 48.2 °F 46% 30.35 in 6.0 mi ENE 3.5 mph - N/A   Scattered Clouds
11:44 AM 71.6 °F 46.4 °F 41% 29.84 in 6.0 mi SE 4.6 mph - N/A   Mostly Cloudy
12:43 PM 73.4 °F 44.6 °F 36% 30.28 in 6.0 mi East 13.8 mph - N/A   Scattered Clouds
1:42 PM 75.2 °F 44.6 °F 34% 30.26 in 6.0 mi SE 10.4 mph - N/A   Scattered Clouds
2:41 PM 75.2 °F 42.8 °F 31% 29.74 in 8.0 mi SE 12.7 mph - N/A   Scattered Clouds
3:45 PM 77.0 °F 42.8 °F 29% 30.20 in 9.0 mi SSE 17.3 mph - N/A   Scattered Clouds
4:43 PM 77.0 °F 42.8 °F 29% 30.19 in 9.0 mi South 11.5 mph 23.0 mph N/A   Scattered Clouds
5:53 PM 75.2 °F 42.8 °F 31% 29.72 in 9.0 mi South 11.5 mph - N/A   Partly Cloudy
6:48 PM 71.6 °F 44.6 °F 38% 30.24 in 9.0 mi South 10.4 mph - N/A   Partly Cloudy
6:50 PM 71.6 °F 44.6 °F 38% 30.24 in 9.0 mi South 11.5 mph - N/A   Partly Cloudy
7:43 PM 69.8 °F 44.6 °F 40% 30.27 in 12.0 mi SW 16.1 mph - N/A   Partly Cloudy
8:45 PM 68.0 °F 42.8 °F 40% 29.79 in 12.0 mi WSW 11.5 mph - N/A   Clear
9:42 PM 68.0 °F 41.0 °F 37% 30.30 in 12.0 mi West 6.9 mph - N/A   Partly Cloudy
10:42 PM 66.2 °F 41.0 °F 40% 30.32 in 12.0 mi West 9.2 mph - N/A   Partly Cloudy
11:44 PM 64.4 °F 41.0 °F 42% 29.77 in 12.0 mi West 5.8 mph - N/A   Clear